Location: Affing
(48.4613°N, 10.9810°E)
Time: 21:32:41
(UTC+00:00)

Daily predictions for brighter satellites

Satellite Brightness Start Highest point End
(mag) Time Altitude Azimuth Time Altitude Azimuth Time Altitude Azimuth
Cosmos 2208 Rocket 4.0 15:48:52 10° NNW 15:54:04 78° ENE 15:59:15 10° SSE
Cosmos 2098 Rocket 3.5 15:50:06 10° SSE 15:54:05 43° E 15:58:44 10° NNE
NOSS 2-2 (E) 2.7 15:51:48 10° SW 15:55:10 75° SE 15:58:12 10° NE
Cosmos 724 4.3 15:51:28 10° NW 15:57:34 75° NE 16:03:28 10° SE
Meteor 1-20 Rocket 4.5 15:53:34 10° N 15:58:46 44° ENE 16:03:58 10° SE
CZ-4C R/B 3.0 15:53:37 10° NW 16:00:23 68° NE 16:08:51 10° SE
Cosmos 2266 Rocket 4.2 15:55:55 10° N 16:01:48 45° ENE 16:07:34 10° SE
Cosmos 405 Rocket 2.7 16:00:17 10° NNW 16:03:31 67° W 16:06:42 10° S
CBERS-1 4.0 15:59:18 10° SSE 16:04:24 77° ENE 16:09:32 10° NNW
SMAP 3.3 16:01:26 10° SE 16:05:52 46° ENE 16:10:20 10° N
Cosmos 2297 Rocket 2.2 16:03:59 10° NNW 16:09:42 86° ENE 16:15:22 10° SSE
Landsat 7 4.2 16:06:23 10° SE 16:10:43 40° ENE 16:15:04 10° N
Cosmos 1626 Rocket 3.8 16:10:03 10° NNW 16:14:23 75° W 16:18:39 10° S
Meteor 1-28 Rocket 2.8 16:11:50 10° NNE 16:15:10 69° ESE 16:18:29 10° S
NOSS 2-2 (C) 4.3 16:14:04 10° W 16:16:47 26° NW 16:19:24 10° NNE
Cosmos 1606 Rocket 4.2 16:19:23 10° SSE 16:23:23 35° E 16:27:25 10° NNE
BlueWalker 3 4.5 16:20:49 10° W 16:23:42 23° SW 16:26:35 10° S
ATLAS CENTAUR R/B 3.1 16:23:10 10° WNW 16:25:59 28° WSW 16:28:43 10° S
Thor Agena Rocket 3.5 16:21:37 10° SSE 16:26:50 87° ENE 16:32:01 10° NNW
Cosmos 1503 Rocket 4.0 16:22:41 10° S 16:27:51 65° ESE 16:33:01 10° NNE
Cosmos 2219 4.1 16:24:27 10° NNW 16:29:24 29° NE 16:34:20 10° ESE
CENTAUR R/B 3.6 16:24:16 10° W 16:29:53 38° NNW 16:36:52 10° NE
Cosmos 1484 Rocket 3.8 16:28:13 10° S 16:31:35 44° W 16:34:58 10° NNW
Cosmos 1544 Rocket 4.0 16:28:13 10° SSW 16:32:35 64° WNW 16:37:00 10° N
USA 290 3.3 16:30:15 10° NNW 16:33:25 49° WSW 16:36:34 10° S
SL-16 R/B 2.8 16:27:20 10° NNE 16:33:33 73° WNW 16:39:43 10° SSW
AQUARIUS 4.3 16:29:37 10° SE 16:33:50 48° ENE 16:38:06 10° N
GEOS 3 Rocket 3.7 16:28:51 11° NE 16:33:59 69° SE 16:39:19 10° SSW
Cosmos 1980 Rocket 3.2 16:30:17 10° SSE 16:34:49 25° ESE 16:37:57 16° ENE
Lacrosse 5 rocket 2.6 16:32:22 10° WNW 16:35:29 24° NNW 16:37:41 15° NE
NOSS 2-3 (C) 4.4 16:32:49 10° S 16:35:32 22° ESE 16:36:50 18° E
Cosmos 1844 Rocket 4.3 16:33:03 10° N 16:36:09 15° NNE 16:37:19 14° NE
Cosmos 1354 Rocket 4.1 16:32:21 10° S 16:37:29 56° ESE 16:42:34 10° NNE
Meteor 1-25 Rocket 4.2 16:33:37 10° N 16:39:27 72° ENE 16:45:12 10° SSE
Meteor 1-5 Rocket 4.3 16:34:20 10° N 16:39:31 47° ENE 16:44:46 10° SSE
Lacrosse 4 Rocket 3.8 16:37:52 10° WNW 16:40:04 14° NW 16:42:15 10° N
BREEZE M DEB (TANK) 2.4 16:38:04 10° SW 16:40:27 39° SSE 16:41:17 25° ESE
CORIOLIS 4.2 16:35:44 10° SSE 16:41:04 82° WSW 16:46:27 10° NNW
Cosmos 1777 Rocket 4.1 16:38:49 10° SSW 16:44:04 81° WNW 16:49:21 10° NNE
IRIDIUM 104 4.3 16:38:53 10° N 16:44:09 89° E 16:49:23 10° S
Cosmos 2263 Rocket 2.4 16:39:10 10° NNW 16:44:38 46° NE 16:50:05 10° SE
Cosmos 1726 Rocket 3.9 16:42:50 10° SSE 16:47:16 46° E 16:51:40 10° NNE
CZ-2D R/B 2.5 16:44:40 10° SSE 16:47:48 77° ENE 16:50:57 10° N
USA 238 DEB 4.1 16:44:32 10° S 16:50:01 37° ESE 16:53:47 20° ENE
USA 238 4.1 16:44:39 10° S 16:50:08 36° ESE 16:53:52 20° ENE
Okean 1-7 Rocket 3.6 16:47:01 10° N 16:51:26 84° W 16:55:48 10° S
Cosmos 1602 Rocket 4.3 16:49:01 10° NNW 16:53:19 55° W 16:57:33 10° S
ERS-1 4.4 16:48:20 10° SSE 16:53:20 79° ENE 16:58:19 10° NNW
Cosmos 1461 3.0 16:52:01 10° SW 16:55:53 62° NW 16:58:29 20° NNE
Cosmos 1933 3.1 16:53:32 10° S 16:57:22 87° E 17:01:13 10° N
USA 215 3.9 16:53:50 19° ENE 16:58:05 42° N 17:04:10 10° WNW
IRS-1C 4.2 16:53:44 10° SSE 16:59:03 80° WSW 17:04:25 10° NNW
YAOGAN 1 3.1 16:56:00 10° SE 16:59:51 35° ENE 17:03:44 10° N
Cosmos-2242 3.8 16:56:29 10° SSE 17:00:04 27° E 17:00:12 27° E
Cosmos 2227 Rocket 2.2 16:55:27 10° NNW 17:01:08 87° WSW 17:06:47 10° SSE
SKYMED 2 4.0 16:58:49 22° NE 17:01:08 39° E 17:05:13 10° SSE
BREEZE-M DEB (TANK) 4.0 16:58:15 10° SSW 17:01:35 21° SSE 17:02:21 19° SE
NOSS 2-3 (E) 3.3 16:58:48 10° SSW 17:02:21 53° SE 17:03:39 34° ENE
NOSS 2-3 (D) 3.4 16:59:28 10° SSW 17:03:02 49° SE 17:04:13 35° ENE
SJ-12 3.9 17:00:10 10° S 17:03:56 71° WSW 17:07:43 10° NNW
Cosmos 2151 4.4 17:03:29 10° NNW 17:07:22 39° W 17:11:14 10° SSW
Cosmos 1655 Rocket 3.9 17:07:10 10° N 17:13:26 80° E 17:19:39 10° SSE
Meteor 2-10 4.1 17:09:18 10° N 17:14:36 58° ENE 17:20:04 10° SSE
Cosmos 1697 Rocket 2.7 17:09:16 10° SSW 17:14:52 81° WNW 17:19:15 17° NNE
Cosmos 990 Rocket 3.9 17:10:00 10° SSW 17:15:07 86° WNW 17:19:09 17° NNE
CZ-4 R/B 4.2 17:11:25 10° SSE 17:15:20 75° ENE 17:19:18 10° N
Cosmos 1867 4.4 17:10:47 10° NW 17:16:04 51° WSW 17:21:18 10° SSE
MOS 1 Rocket 3.7 17:11:45 10° S 17:16:40 73° W 17:21:53 10° NNW
Cosmos 1953 Rocket 3.4 17:12:45 10° N 17:17:13 79° E 17:21:40 10° SSE
Aureole 1 Rocket 3.5 17:13:09 10° S 17:17:26 49° ESE 17:19:37 31° NE
ARIANE 5 R/B 3.5 17:19:14 10° S 17:24:06 48° W 17:29:05 10° NNW
Cosmos 1825 Rocket 4.4 17:22:17 10° NNW 17:26:29 49° W 17:30:38 10° SSW
COSMOS 2455 4.2 17:26:32 10° SSE 17:29:38 21° SE 17:29:38 21° SE
NOAA 6 4.0 17:26:33 10° SE 17:31:30 53° ENE 17:36:27 10° N
Cosmos 1680 Rocket 4.3 17:27:55 10° N 17:31:46 33° NNE 17:31:46 33° NNE
USA 81 3.9 17:28:59 10° N 17:34:17 82° E 17:39:33 10° S
CZ-2D R/B 3.4 17:31:09 10° SSE 17:35:20 88° WSW 17:39:31 10° NNW
Radarsat Rocket 4.5 17:28:45 10° SSE 17:36:52 76° ENE 17:44:06 10° NNW
IRAS Rocket 4.1 17:32:23 10° SSE 17:37:50 72° ENE 17:43:18 10° NNW
Meteor 2-2 Rocket 4.1 17:33:43 10° S 17:39:16 63° E 17:41:51 32° NNE
Gbstr 26 Del rocket 2.5 17:35:37 10° WSW 17:39:35 84° NNW 17:39:37 84° N
NOSS 3-2 (C) 4.0 17:35:01 10° WSW 17:40:03 46° NW 17:43:16 25° NNE
SPOT 1/Viking Rocket 3.8 17:35:52 10° S 17:41:03 70° WSW 17:46:16 10° NNW
PSLV R/B 3.2 17:38:59 10° SSE 17:43:06 79° NE 17:47:05 10° NNW
Cosmos 1076 Rocket 4.4 17:40:24 10° NNW 17:44:34 50° W 17:48:44 10° SSW
SL-19 R/B 4.1 17:41:13 10° SSE 17:46:36 85° ENE 17:52:20 10° NNW
Cosmos 2082 3.6 17:42:42 10° NNW 17:48:27 74° ENE 17:50:41 38° SE
CZ-4C R/B 4.4 17:42:03 10° NW 17:48:43 39° WSW 17:56:37 10° S
COSMO-SKYMED 1 2.5 17:49:12 68° S 17:49:12 68° S 17:52:51 10° SSW
Cosmos 2058 Rocket 3.0 17:45:14 10° S 17:49:43 86° W 17:50:44 54° N
SL-16 R/B 4.4 17:55:53 10° SSE 17:56:09 11° SSE 17:56:09 11° SSE
Meteor 2-11 Rocket 4.3 17:54:34 10° N 18:00:45 71° E 18:06:52 10° SSE
Nadezhda 2 Rocket 4.3 17:56:17 10° N 18:02:28 88° W 18:08:33 10° S
Meteor 1-26 Rocket 4.1 17:58:14 10° SSW 18:03:39 83° WNW 18:05:35 42° N
Cosmos 1553 Rocket 3.9 18:04:45 10° S 18:10:55 89° W 18:14:52 25° N
Lacrosse 5 rocket 3.6 18:10:24 10° NW 18:11:16 14° NW 18:11:16 14° NW
Cosmos 2219 3.6 18:08:17 10° NNW 18:13:57 62° WSW 18:17:57 20° S
Cosmos 1980 Rocket 2.6 18:12:49 10° SW 18:18:24 59° WNW 18:19:44 47° N
Cosmos 1844 Rocket 3.8 18:15:48 10° NNW 18:18:59 32° N 18:18:59 32° N
CENTAUR R/B 4.2 18:17:02 10° NW 18:22:42 26° N 18:24:02 25° NNE
Cosmos 2263 Rocket 3.8 18:23:20 10° NW 18:28:23 34° WSW 18:33:24 10° SSW
Cosmos 1898 Rocket 4.0 18:25:19 10° SW 18:30:11 57° WNW 18:30:11 57° WNW
Cosmos 2369 3.9 18:25:34 10° SSW 18:30:42 70° WSW 18:30:42 70° WSW
USA 215 3.5 18:41:10 55° N 18:41:10 55° N 18:46:53 10° NW
USA 238 DEB 3.9 18:34:32 10° WSW 18:40:38 57° NW 18:41:14 55° NNW
USA 238 3.9 18:34:37 10° WSW 18:40:44 58° NW 18:41:20 56° NNW
